Home   Weather   State College   Past weeks

Flag for USA Past Weather in State College, Pennsylvania, USA — Yesterday and Last 2 Weeks

Now
81 °F

Sunny.


Feels Like: 81 °F
Forecast: 59 / 82 °F
Wind: No wind

Location: University Park Airport

Current Time: Aug 30, 2016 at 6:55:40 PM

Latest Report: Aug 30, 2016 at 5:53 PM


Visibility: 10 mi

Pressure: 30.10 "Hg

Humidity: 48%

Dew Point: 59 °F

Location of State CollegeLocation

Past Weather in State College — Graph

°F

State College Temperature Yesterday

Maximum temperature yesterday: 84 °F (at 4:53 PM)
Minimum temperature yesterday: 64 °F (at 4:55 AM)
Average temperature yesterday: 70 °F

High & Low Weather Summary for the Past Weeks

 TemperatureHumidityPressure
High86 °F (Aug 26, 2:53 PM)100% (Aug 16, 5:53 AM)30.37 "Hg (Aug 16, 5:53 AM)
Low52 °F (Aug 23, 6:53 AM)25% (Aug 30, 10:53 AM)29.80 "Hg (Aug 21, 4:55 AM)
Average70 °F82%30.12 "Hg
* Reported Aug 15 4:53 PM — Aug 30 4:53 PM, State College, Weather by CustomWeather, © 2016

Note: Actual official high and low records may vary slightly from our data, if they occured in-between our weather recording intervals... More about our weather records

Advertising

State College Weather History for the Previous 24 Hours

Scroll right to see more
 ConditionsComfort  
Time TempWeatherWind HumidityBarometerVisibility
4:53 PM
Tue, Aug 30
81 °FSunny.5 mph45%30.11 "Hg10 mi
3:53 PM81 °FSunny.No wind48%30.12 "Hg10 mi
2:53 PM79 °FSunny.No wind48%30.14 "Hg10 mi
1:53 PM79 °FScattered clouds.No wind54%30.16 "Hg10 mi
12:53 PM77 °FScattered clouds.No wind61%30.19 "Hg10 mi
11:53 AM75 °FScattered clouds.No wind61%30.19 "Hg10 mi
10:53 AM72 °FSunny.No wind25%30.21 "Hg10 mi
9:53 AM68 °FSunny.No wind83%30.22 "Hg10 mi
8:53 AM63 °FSunny.No wind94%30.22 "Hg10 mi
7:53 AM59 °FSunny.No wind100%30.22 "Hg10 mi
6:53 AM57 °FClear.No wind100%30.22 "Hg10 mi
5:53 AM59 °FClear.No wind100%30.21 "Hg10 mi
5:15 AM59 °FFog.No wind99%30.21 "Hg1 mi
4:55 AM60 °FFog.No wind99%30.20 "Hg2 mi
4:15 AM60 °FFog.No wind98%30.21 "Hg4 mi
3:55 AM60 °FPassing clouds.No wind97%30.21 "Hg10 mi
3:15 AM62 °FPassing clouds.No wind96%30.20 "Hg10 mi
2:55 AM62 °FPartly cloudy.No wind96%30.21 "Hg10 mi
2:35 AM61 °FPassing clouds.No wind97%30.21 "Hg10 mi
2:15 AM62 °FPassing clouds.No wind95%30.20 "Hg10 mi
1:55 AM64 °FPassing clouds.No wind90%30.21 "Hg10 mi
1:35 AM64 °FClear.No wind88%30.21 "Hg10 mi
1:15 AM64 °FPassing clouds.No wind92%30.20 "Hg10 mi
12:55 AM64 °FPassing clouds.No wind90%30.21 "Hg10 mi
12:15 AM65 °FPassing clouds.No wind87%30.21 "Hg10 mi
11:55 PM
Mon, Aug 29
68 °FClear.No wind77%30.21 "Hg10 mi
11:35 PM69 °FPassing clouds.3 mph76%30.21 "Hg10 mi
11:15 PM67 °FClear.No wind78%30.21 "Hg10 mi
10:55 PM70 °FPassing clouds.No wind71%30.20 "Hg10 mi
10:15 PM70 °FPassing clouds.6 mph71%30.21 "Hg10 mi
9:55 PM70 °FPassing clouds.5 mph70%30.21 "Hg10 mi
8:53 PM72 °FClear.No wind69%30.19 "Hg10 mi
7:53 PM77 °FSunny.No wind54%30.18 "Hg10 mi
6:53 PM79 °FSunny.No wind51%30.17 "Hg10 mi
Weather by CustomWeather, © 2016

See weather overviewHow to use our weather pages